Location: Bussy-Saint-Georges
(48.8410°N, 2.7017°E)
Time: 21:10:29
(UTC+00:00)

Cosmos 1697 Rocket - Pass Details

Date: 18 October 2021
Orbit: 834 x 842 km, 71.0° (Epoch: 06 December)

Event Time Altitude Azimuth Distance (km) Brightness Sun altitude
Rises 18:45:37 0° 236° (SW) 3,390 6.6 -19.2°
Reaches altitude 10° 18:48:17 10° 245° (WSW) 2,458 5.9 -19.6°
Maximum altitude 18:53:24 35° 310° (NW) 1,343 4.2 -20.4°
Drops below altitude 10° 18:58:33 10° 16° (NNE) 2,466 5.1 -21.3°
Sets 19:01:14 0° 25° (NNE) 3,403 5.7 -21.7°
